カタログに戻る

STARLINK-2245

運用中通信VLEO
NORAD 48589·PAYLOAD·🇺🇸 United States

打ち上げ May 15, 2021 から Cape Canaveral Space Force Station

Loading…

次のパス (今後24時間)

TLE

最新Source: CelesTrak SupGP

元期: Sep 14, 2026, 21:37 UTC

1 48589C 21041AN  26257.90118056 -.00020320  00000+0 -65337-3 0  2576
2 48589  53.1577 326.2362 0001172  96.3073 351.1109 15.31716179    19

AllMySatでSTARLINK-2245をリアルタイム追跡

Download on the App Store